• In Hungary
  • List of Countries
  • For 7 days
  • Water Temperature
  • Satellite Maps
  • Weather Map
  • News
  • Weather Widgets
  • user-avatar
    Login

    Hourly Weather Ayacucho

    Today, 15 November, Thursday

    Time Temperature Precipitation Wind Pressure Humidity
    00:00 +15°C° 0 mm 1 mps 541 mmHg 79%
    01:00 +14°C° 0 mm 1 mps 541 mmHg 83%
    02:00 +14°C° 0.2 mm 1 mps 540 mmHg 84%
    03:00 +14°C° 0.2 mm 1 mps 540 mmHg 85%
    04:00 +14°C° 0.2 mm 1 mps 540 mmHg 86%
    05:00 +14°C° 0.2 mm 1 mps 540 mmHg 82%
    06:00 +15°C° 0.2 mm 1 mps 541 mmHg 79%
    07:00 +15°C° 0.2 mm 1 mps 541 mmHg 75%
    08:00 +18°C° 0 mm 1 mps 542 mmHg 68%
    09:00 +18°C° 0 mm 2 mps 542 mmHg 60%
    10:00 +20°C° 0 mm 2 mps 543 mmHg 53%
    11:00 +21°C° 0.1 mm 3 mps 543 mmHg 50%
    12:00 +22°C° 0.1 mm 3 mps 543 mmHg 47%
    13:00 +24°C° 0.1 mm 3 mps 543 mmHg 44%
    14:00 +22°C° 0.4 mm 3 mps 542 mmHg 47%
    15:00 +22°C° 0.4 mm 3 mps 542 mmHg 49%
    16:00 +21°C° 0.4 mm 3 mps 541 mmHg 52%
    17:00 +19°C° 0.9 mm 3 mps 541 mmHg 59%
    18:00 +18°C° 0.9 mm 2 mps 541 mmHg 66%
    19:00 +16°C° 0.9 mm 2 mps 541 mmHg 73%
    20:00 +16°C° 0.7 mm 2 mps 541 mmHg 75%
    21:00 +16°C° 0.7 mm 1 mps 541 mmHg 77%
    22:00 +15°C° 0.7 mm 1 mps 542 mmHg 79%
    23:00 +15°C° 0.5 mm 1 mps 541 mmHg 80%

    Tomorrow, 16 November, Friday

    Time Temperature Precipitation Wind Pressure Humidity
    00:00 +15°C° 0.5 mm 1 mps 541 mmHg 82%
    01:00 +15°C° 0.5 mm 1 mps 541 mmHg 83%
    02:00 +14°C° 0.6 mm 1 mps 540 mmHg 84%
    03:00 +14°C° 0.6 mm 1 mps 540 mmHg 85%
    04:00 +14°C° 0.6 mm 1 mps 540 mmHg 85%
    05:00 +14°C° 0.5 mm 1 mps 540 mmHg 83%
    06:00 +15°C° 0.5 mm 1 mps 541 mmHg 80%
    07:00 +15°C° 0.5 mm 1 mps 541 mmHg 77%
    08:00 +18°C° 0.2 mm 1 mps 542 mmHg 71%
    09:00 +18°C° 0.2 mm 2 mps 542 mmHg 64%
    10:00 +19°C° 0.2 mm 2 mps 543 mmHg 57%
    11:00 +20°C° 0.1 mm 3 mps 543 mmHg 54%
    12:00 +21°C° 0.1 mm 3 mps 543 mmHg 51%
    13:00 +22°C° 0.1 mm 3 mps 543 mmHg 48%
    14:00 +21°C° 0.3 mm 3 mps 542 mmHg 51%
    15:00 +21°C° 0.3 mm 3 mps 542 mmHg 53%
    16:00 +20°C° 0.3 mm 3 mps 541 mmHg 56%
    17:00 +19°C° 0.6 mm 3 mps 541 mmHg 62%
    18:00 +18°C° 0.6 mm 2 mps 541 mmHg 68%
    19:00 +16°C° 0.6 mm 2 mps 541 mmHg 74%
    20:00 +16°C° 0.3 mm 2 mps 541 mmHg 76%
    21:00 +16°C° 0.3 mm 1 mps 542 mmHg 78%
    22:00 +15°C° 0.3 mm 1 mps 542 mmHg 80%
    23:00 +15°C° 0.1 mm 1 mps 541 mmHg 80%

    Day after tomorrow, 17 November, Saturday

    Time Temperature Precipitation Wind Pressure Humidity
    00:00 +15°C° 0.1 mm 1 mps 541 mmHg 81%
    01:00 +15°C° 0.1 mm 1 mps 541 mmHg 81%
    02:00 +14°C° 0.1 mm 1 mps 540 mmHg 81%
    03:00 +14°C° 0.1 mm 1 mps 540 mmHg 80%
    04:00 +14°C° 0.1 mm 1 mps 540 mmHg 80%
    05:00 +15°C° 0 mm 1 mps 540 mmHg 73%
    06:00 +15°C° 0 mm 1 mps 541 mmHg 65%
    07:00 +16°C° 0 mm 1 mps 542 mmHg 58%
    08:00 +19°C° 0 mm 1 mps 543 mmHg 49%
    09:00 +21°C° 0 mm 1 mps 543 mmHg 40%
    10:00 +21°C° 0 mm 2 mps 544 mmHg 31%
    11:00 +23°C° 0 mm 2 mps 544 mmHg 30%
    12:00 +24°C° 0 mm 2 mps 544 mmHg 29%
    13:00 +25°C° 0 mm 3 mps 544 mmHg 28%
    14:00 +25°C° 0.3 mm 3 mps 543 mmHg 32%
    15:00 +24°C° 0.3 mm 3 mps 542 mmHg 36%
    16:00 +23°C° 0.3 mm 4 mps 542 mmHg 39%
    17:00 +21°C° 0.6 mm 3 mps 542 mmHg 49%
    18:00 +19°C° 0.6 mm 3 mps 541 mmHg 59%
    19:00 +17°C° 0.6 mm 2 mps 541 mmHg 69%
    20:00 +17°C° 0.2 mm 2 mps 541 mmHg 71%
    21:00 +16°C° 0.2 mm 2 mps 542 mmHg 73%
    22:00 +16°C° 0.2 mm 1 mps 542 mmHg 75%
    23:00 +16°C° 0.1 mm 1 mps 541 mmHg 77%

    18 November, Sunday

    Time Temperature Precipitation Wind Pressure Humidity
    00:00 +15°C° 0.1 mm 1 mps 541 mmHg 79%
    01:00 +15°C° 0.1 mm 1 mps 540 mmHg 80%
    02:00 +15°C° 0.1 mm 1 mps 540 mmHg 81%
    03:00 +14°C° 0.1 mm 1 mps 540 mmHg 82%
    04:00 +14°C° 0.1 mm 1 mps 539 mmHg 83%
    05:00 +15°C° 0 mm 1 mps 540 mmHg 80%
    06:00 +15°C° 0 mm 1 mps 540 mmHg 76%
    07:00 +16°C° 0 mm 1 mps 541 mmHg 72%
    08:00 +18°C° 0 mm 1 mps 542 mmHg 65%
    09:00 +19°C° 0 mm 2 mps 542 mmHg 58%
    10:00 +20°C° 0 mm 2 mps 543 mmHg 50%
    11:00 +21°C° 0.2 mm 2 mps 543 mmHg 47%
    12:00 +24°C° 0.2 mm 3 mps 543 mmHg 44%
    13:00 +25°C° 0.2 mm 3 mps 543 mmHg 40%
    14:00 +24°C° 0.4 mm 3 mps 542 mmHg 43%
    15:00 +24°C° 0.4 mm 3 mps 542 mmHg 45%
    16:00 +22°C° 0.4 mm 3 mps 541 mmHg 48%
    17:00 +20°C° 0.5 mm 3 mps 541 mmHg 56%
    18:00 +18°C° 0.5 mm 2 mps 541 mmHg 63%
    19:00 +17°C° 0.5 mm 2 mps 541 mmHg 71%
    20:00 +16°C° 0.6 mm 2 mps 541 mmHg 74%
    21:00 +16°C° 0.6 mm 2 mps 541 mmHg 77%
    22:00 +15°C° 0.6 mm 1 mps 542 mmHg 79%
    23:00 +15°C° 1 mm 1 mps 541 mmHg 79%

    19 November, Monday

    Time Temperature Precipitation Wind Pressure Humidity
    00:00 +15°C° 1 mm 1 mps 541 mmHg 80%
    01:00 +15°C° 1 mm 1 mps 540 mmHg 80%
    02:00 +15°C° 1.1 mm 1 mps 540 mmHg 80%
    03:00 +14°C° 1.1 mm 1 mps 540 mmHg 80%
    04:00 +14°C° 1.1 mm 1 mps 539 mmHg 80%
    05:00 +14°C° 0.4 mm 1 mps 540 mmHg 78%
    06:00 +15°C° 0.4 mm 1 mps 540 mmHg 77%
    07:00 +15°C° 0.4 mm 1 mps 541 mmHg 75%
    08:00 +16°C° 0.1 mm 1 mps 541 mmHg 69%
    09:00 +17°C° 0.1 mm 2 mps 542 mmHg 63%
    10:00 +18°C° 0.1 mm 2 mps 542 mmHg 57%
    11:00 +19°C° 0.1 mm 2 mps 542 mmHg 55%
    12:00 +19°C° 0.1 mm 3 mps 542 mmHg 53%
    13:00 +20°C° 0.1 mm 3 mps 542 mmHg 51%
    14:00 +20°C° 0.1 mm 3 mps 541 mmHg 54%
    15:00 +19°C° 0.1 mm 3 mps 541 mmHg 57%
    16:00 +18°C° 0.1 mm 3 mps 540 mmHg 59%
    17:00 +17°C° 0.4 mm 2 mps 540 mmHg 65%
    18:00 +16°C° 0.4 mm 2 mps 541 mmHg 71%
    19:00 +15°C° 0.4 mm 2 mps 541 mmHg 77%
    20:00 +15°C° 0.4 mm 1 mps 541 mmHg 78%
    21:00 +14°C° 0.4 mm 1 mps 541 mmHg 80%
    22:00 +14°C° 0.4 mm 1 mps 541 mmHg 82%
    23:00 +14°C° 0.1 mm 1 mps 541 mmHg 82%

    20 November, Tuesday

    Time Temperature Precipitation Wind Pressure Humidity
    00:00 +14°C° 0.1 mm 1 mps 540 mmHg 82%
    01:00 +14°C° 0.1 mm 1 mps 540 mmHg 81%
    02:00 +14°C° 0 mm 1 mps 540 mmHg 81%
    03:00 +13°C° 0 mm 0 mps 539 mmHg 81%
    04:00 +12°C° 0 mm 0 mps 539 mmHg 81%
    05:00 +13°C° 0 mm 0 mps 540 mmHg 76%
    06:00 +13°C° 0 mm 0 mps 541 mmHg 71%
    07:00 +14°C° 0 mm 0 mps 541 mmHg 66%
    08:00 +16°C° 0 mm 1 mps 542 mmHg 59%
    09:00 +19°C° 0 mm 1 mps 542 mmHg 51%
    10:00 +20°C° 0 mm 1 mps 543 mmHg 44%
    11:00 +20°C° 0 mm 2 mps 542 mmHg 41%
    12:00 +21°C° 0 mm 2 mps 542 mmHg 39%
    13:00 +22°C° 0 mm 3 mps 542 mmHg 36%
    14:00 +22°C° 0 mm 3 mps 542 mmHg 40%
    15:00 +21°C° 0 mm 3 mps 542 mmHg 43%
    16:00 +21°C° 0 mm 3 mps 541 mmHg 46%
    17:00 +19°C° 0 mm 3 mps 541 mmHg 55%
    18:00 +18°C° 0 mm 2 mps 541 mmHg 63%
    19:00 +16°C° 0 mm 2 mps 541 mmHg 72%
    20:00 +16°C° 0.1 mm 2 mps 541 mmHg 75%
    21:00 +15°C° 0.1 mm 1 mps 541 mmHg 77%
    22:00 +15°C° 0.1 mm 1 mps 542 mmHg 80%
    23:00 +15°C° 0.2 mm 1 mps 541 mmHg 81%
    Show more